Simultaneous Nadir Overpasses (SNOs) Predictions

Prediction of SNOs between LANDSAT-8 and NOAA-19 Satellite Orbit:

Table of predicted SNOs for the next 14.0 days since TLE Epoch: 8/16/2014
Index Date (LANDSAT-8) Time (LANDSAT-8) Lat,Lon (LANDSAT-8) SZA (LANDSAT-8 ) Date (NOAA-19) Time (NOAA-19) Lat,Lon (NOAA-19) SZA (NOAA-19 ) Distance(km) Time Diff (sec)
1 08/18/2014 06:57:50 72.16, 75.14 58.97 08/18/2014 06:56:51 72.17, 75.23 58.98 3.50 59
2 08/18/2014 07:47:19 -72.10,-117.34 121.08 08/18/2014 07:47:54 -72.08,-117.36 121.10 2.15 35
3 08/20/2014 11:41:59 72.62, 4.92 60.15 08/20/2014 11:40:49 72.69, 3.24 60.24 56.32 70
4 08/20/2014 12:31:36 -72.14, 171.66 120.33 08/20/2014 12:31:42 -72.12, 171.65 120.35 2.08 6
5 08/22/2014 17:15:53 -72.17, 100.64 119.57 08/22/2014 17:15:30 -72.16, 100.64 119.57 0.79 23
6 08/22/2014 18:05:20 72.07, -91.89 60.35 08/22/2014 18:06:28 72.08, -91.95 60.37 2.89 68
7 08/24/2014 22:00:10 -72.19, 29.61 118.80 08/24/2014 21:59:18 -72.20, 29.63 118.78 1.89 52
8 08/24/2014 22:49:37 72.09,-162.92 61.12 08/24/2014 22:50:16 72.11,-162.92 61.14 1.88 39
9 08/27/2014 02:44:23 -72.41, -41.05 117.81 08/27/2014 02:43:11 -72.50, -41.90 117.71 30.10 72
10 08/27/2014 03:33:52 72.16, 126.13 61.95 08/27/2014 03:34:03 72.13, 126.11 61.92 3.00 11
11 08/29/2014 08:18:09 72.16, 55.07 62.73 08/29/2014 08:17:51 72.16, 55.13 62.72 2.36 18
